This is the latest recevied weather packets stored in our database for station/object R1ZAAG-14. If no packets are shown the sender has not sent any weather packets the latest 10 day(s).
| Time | Temp. | Humidity | Pressure | Rain* | Wind** | Luminosity | Snow |
|---|---|---|---|---|---|---|---|
| 1777542950 | 5.56° C | 52% | 1016.4 hPa | - | - | - | - |
| 1777542055 | 5.56° C | 52% | 1016.5 hPa | - | - | - | - |
| 1777542049 | 5.56° C | 52% | 1016.5 hPa | - | - | - | - |
| 1777541154 | 4.44° C | 54% | 1016.5 hPa | - | - | - | - |
| 1777541148 | 4.44° C | 54% | 1016.5 hPa | - | - | - | - |
| 1777540253 | 4.44° C | 54% | 1016.5 hPa | - | - | - | - |
| 1777540248 | 4.44° C | 54% | 1016.5 hPa | - | - | - | - |
| 1777539355 | 3.89° C | 67% | 1016.3 hPa | - | - | - | - |
| 1777539347 | 3.89° C | 67% | 1016.3 hPa | - | - | - | - |
| 1777538455 | 3.89° C | 67% | 1016.4 hPa | - | - | - | - |
| 1777538445 | 3.89° C | 67% | 1016.4 hPa | - | - | - | - |
| 1777537554 | 3.33° C | 69% | 1016.3 hPa | - | - | - | - |
| 1777537545 | 3.33° C | 69% | 1016.3 hPa | - | - | - | - |
| 1777535741 | 2.78° C | 70% | 1016 hPa | - | - | - | - |
| 1777534841 | 2.78° C | 72% | 1016 hPa | - | - | - | - |
| 1777533940 | 2.78° C | 71% | 1015.9 hPa | - | - | - | - |
| 1777533039 | 2.22° C | 72% | 1015.9 hPa | - | - | - | - |
| 1777532139 | 1.67° C | 74% | 1015.9 hPa | - | - | - | - |
| 1777531238 | 1.11° C | 75% | 1015.9 hPa | - | - | - | - |
| 1777530337 | 1.11° C | 76% | 1015.9 hPa | - | - | - | - |
| 1777529436 | 1.11° C | 77% | 1015.9 hPa | - | - | - | - |
| 1777528535 | 1.11° C | 77% | 1015.8 hPa | - | - | - | - |
| 1777527635 | 0.56° C | 79% | 1015.7 hPa | - | - | - | - |
| 1777526734 | 0.56° C | 79% | 1015.7 hPa | - | - | - | - |
| 1777525833 | 0° C | 82% | 1015.7 hPa | - | - | - | - |
* Rain since midnight (hover to see other rain measurements)
** Current wind speed in m/s (hover to see current wind gust speed)